一网星座-0035星 (ONEWEB-0035 )

导读 | 星芒AI

ONEWEB-0035 是 OneWeb 卫星星座计划中的一颗低轨通信卫星,旨在为全球提供高速互联网服务。该卫星由空中客车防务与航天公司制造,采用 OneWeb 标准卫星平台,具备高容量和低延迟特性。它于2022年发射,运行在约1200公里高度的近极地轨道,与其他 OneWeb 卫星共同构建覆盖全球的宽带网络,重点服务于偏远和网络基础设施薄弱的地区。该星座计划由数百颗卫星组成,致力于实现全球无缝互联网连接。

基本信息
目录编号:
45143
目录名称:
ONEWEB-0035
国际标识:
2020-008N
轨道中心:
EARTH
卫星名称:
一网星座-0035星
卫星全名:
一网星座-0035星 (ONEWEB-0035 )
卫星状态:
在轨 (已飞行2081 天)
发射日期:
2020-02-06 UTC
国别 :
英国 (GB)
星等 :
--
轨道信息
数据来源 国际轨道数据
星历时间: 2025-10-18T06:53:40+0800
7小时前
查看轨道信息
半长轴: 7599.849km
偏心率: 0.0001683
轨道倾角: 87.875°
近地点辐角 96.166°
升交点赤经 84.580°
平近点角 263.966°
近地点: 1220.434km
远地点: 1222.994km
周期: 109.892分钟
每日圈数: 13.103742
详细信息
平衡模式:
三轴稳定
覆盖范围:
全球
运营商:
一网卫星公司
运营商所在国:
英国
制造商(研发单位):
一网卫星公司
制造商所在国:
英国
使用方式:
暂无
卫星简介
OneWeb卫星网络由648颗重约125公斤的微型卫星组成,运行在1200公里的轨道上。 每颗卫星都能够提供至少每秒8千兆位的吞吐量,以使用其高吞吐量的Ku频段有效载荷为家庭和移动平台提供互联网接入。该卫星仍在工作。
2D轨道图
3D轨道图
轨道高度分析图
轨道倾角分析图
轨道综合分析图
查看轨道综合分析图